Weather in Liezen

Austria     47°34′02″N   14°14′35″E
temp.,
°C
wind,
m/s
gust,
m/s
humid.,
%
clouds,
%
prec.,
mm/h
press.,
hPa
HPBL,
m
21 january, thu
thu2101:00−5s338852 0.0 101177
04:00−5ssw338827 0.0 101060
07:00−5ssw338735 0.0 101055
10:00−1ssw34888 0.0 1010195
13:00+1ssw249754 0.0 1009228
16:000s3489100 0.0 1009112
19:00−2s349155 0.0 100998
22:00−2s348935 0.0 1008134
22 january, fri
fri2201:00−1s238967 0.0 100574
04:000s3689100 0.0 1002172
07:000sse2391100 0.0 100361
10:00+1se12100100 0.0 100267
13:00+2s23100100 0.1 100089
16:00+1sse239466 0.0 998140
19:00−1s239065 0.0 99758
22:00+1sse2391100 0.0 99465
23 january, sat
sat2301:00+1s2392100 0.3 99278
04:00+1s2292100 1.1 99262
07:00−1nw4598100 3.1 995334
10:00−2w2390100 2.3 997207
13:00−2nw2390100 2.7 997463
16:00−3nnw1295100 0.6 996181
19:00−5nw1298100 1.6 99755
22:00−6nnw1198100 0.6 99735
24 january, sun
sun2401:00−6nw1297100 1.9 998104
04:00−6wnw2397100 1.7 998127
07:00−6w1298100 2.5 100092
10:00−5wnw2884100 0.3 10021135
13:00−4wnw2475100 0.3 1002978
16:00−6wnw1183100 0.0 100221
19:00−11s227968 0.0 100321
22:00−13s12730 0.0 100321
25 january, mon
mon2501:00−13ssw127035 0.0 100321
04:00−13ssw227435 0.0 100321
07:00−13sw227525 0.0 100522
10:00−8wsw238919 0.0 1005192
13:00−5wnw3117332 0.2 10071697
16:00−7wnw238746 0.1 100993
19:00−12sw229432 0.1 101230
22:00−11sw229595 0.3 101440